Track IRIDIUM 129 now! 10-day predictions IRIDIUM 129 is classified as:
1 42958U 17061D 25200.64165527 .00000125 00000-0 37419-4 0 9994 2 42958 86.4012 164.2457 0002797 85.6379 274.5136 14.34214536407139